Regional Weather Roundup
Issued by NWS Albany, NY

Home | Current Version | Previous Version | Text Only | Print | Product List | Glossary On
Versions: 1 2 3 4 5 6 7 8 9 10 11 12 13 14 15 16 17 18 19 20 21 22 23 24 25 26 27 28 29 30 31 32 33 34 35 36 37 38 39 40 41 42 43 44 45 46 47 48 49 50
000
ASUS41 KALY 140510
RWRALY

NEW YORK STATE HOURLY WEATHER ROUNDUP
NATIONAL WEATHER SERVICE ALBANY NY
100 AM EDT MON JUL 14 2014

NOTE: "FAIR" INDICATES FEW OR NO CLOUDS BELOW 12,000 FEET WITH NO
SIGNIFICANT WEATHER AND/OR NO OBSTRUCTIONS TO VISIBILITY.

NYZ032-033-038>043-046>054-057>066-NYZ062>081-140600-
EAST


CITY           SKY/WX    TMP DP  RH WIND       PRES   REMARKS
ALBANY         MOCLDY    72  69  90 CALM      29.87R
GLENS FALLS    MOCLDY    70  69  97 S5        29.85R
POUGHKEEPSIE   LGT RAIN  75  72  90 S8        29.87S
MONTGOMERY     CLOUDY    72  70  93 SW7       29.90S
WHITE PLAINS   LGT RAIN  71  68  90 VRB5      29.94S FOG
ISLIP          CLOUDY    75  69  81 SW17G25   29.94R
NEW YORK CITY  RAIN      73  69  87 W9G17     29.94F FOG
CENTRAL PARK     N/A     72  70  94 MISG        N/A
$$

NYZ005>009-017-018-044>046-055-056-140600-
CENTRAL


CITY           SKY/WX    TMP DP  RH WIND       PRES   REMARKS
FULTON         FOG       67  65  93 CALM      29.86S VSB 1
SYRACUSE       MOCLDY    72  67  84 S6        29.86S
ROME           CLEAR     68  67  96 CALM      29.88R FOG
ELMIRA         FOG       69  69 100 CALM      29.90S VSB 1/4
BINGHAMTON     FOG       66  66 100 W6        29.93S VSB 3/4
$$

NYZ026>034-041>043-140600-
NORTH


CITY           SKY/WX    TMP DP  RH WIND       PRES   REMARKS
WATERTOWN      PTCLDY    67  62  84 S3        29.84S
FORT DRUM      NOT AVBL
MASSENA        CLEAR     65  64  97 SW6       29.81R
SARANAC LAKE   MOCLDY    65  62  90 W5        29.87S
PLATTSBURGH    CLEAR     72  65  78 SW5       29.79R
$$

NYZ001>004-010>016-019>021-140600-
WEST


CITY           SKY/WX    TMP DP  RH WIND       PRES   REMARKS
NIAGARA FALLS  CLEAR     69  67  93 SW3       29.86S
BUFFALO        PTCLDY    72  67  84 SW8       29.87F
DUNKIRK        CLEAR     70  64  81 S8        29.88F
JAMESTOWN      CLEAR     66  63  88 SW6       29.95S
WELLSVILLE     PTCLDY    66  63  90 SW7       29.97F
ROCHESTER      MOCLDY    72  68  87 S5        29.86F
PENN YAN       CLEAR     69  67  93 W5        29.90S
$$

             KEY
       WCI = WIND CHILL INDEX
       VSB = VISIBILITY
       HX  = HEAT INDEX
$$



USA.gov is the U.S. government's official web portal to all federal, state and local government web resources and services.